THOR ABLESTAR DEB, 465

Orbit data source: Space-Track

THOR ABLESTAR DEB, 465 is space debris in LEO originally from a launch on Thu, 29 Jun 1961 UTC launched from the Air Force Eastern Test Range (AFETR). Debris objects in space refer to the collection of defunct objects orbiting the Earth. Examples of debris include non-operational satellites, rocket bodies, and fragments generated from explosions, collisions, or faulty payload assembly.

Loading next visibility...
Identifier
465, 1961-015FB
Orbit
LEO
Country
Flag of USUS
Related business
Manufacturer
Unknown
Mission
Spacecraft
Bus & Motor
Unknown
Mass
Unknown
Launch date (UTC)
1961-06-29 (64 years ago)
Launch vehicle
Unknown
Launch site
Air Force Eastern Test Range (AFETR)
Object type
Payload
Rocket body
Debris
Shape & HBR
Unknown shape, 0.1 m
Radar Cross Section
Small (<0.1 m²)

Expand to show TLE details & history
Last TLE update: 10 hours ago

TLE from 10 hours ago
0 THOR ABLESTAR DEB
1 00465U 61015FB  25309.90296206  .00002621  00000-0  85823-3 0  9991
2 00465  66.3160 138.9504 0024804  99.9402 260.4500 14.39877346313949
Epoch: 2025-11-05T21:40Z
TLE epoch observation values (Epoch: 2025-11-05T21:40:15.921Z)
Latitude
0.00002°
Longitude
128.51511°
Altitude
763.97 km
Speed
7.471 km/s
True Right ascension
09h 15m 48s
True Declination
0° 00' 00"
Sunlit
Object was in daylight at epoch
Visualization orbit readout
Latitude
Unknown
Longitude
Unknown
Altitude
Unknown
Speed
Unknown
Apparent Right ascension
Unknown
Apparent Declination
Unknown
Sunlit
N/A
Visualization observer readout
Local Sidereal Time
03:20:52
Azimuth
Unknown
Elevation
Unknown
Doppler factor
Unknown
Orbital elements
Apogee altitude
775.015 km
Perigee altitude
739.618 km
Semi-major axis
7,135.454 km
Eccentricity
0.00248
Inclination
66.316°
RAAN
138.9504°
Arg. of periapsis
99.9402°
True anomaly
260.16985°
Mean anomaly
260.45°
Eccentric anomaly
260.30991°
Mean motion
3.6009 °/min
Orbital period
99.98 mins
BSTAR
0.00085823
Loading maneuver chart data...
Computing Atmospheric mass density...
Loading historical data...
Loading historical data...
Loading historical data...
Loading historical data...
Loading historical data...
Loading historical data...
Loading historical data...

Documentation

Showing up to 5 results
|